Location: D�nning
(49.2479°N, 12.8491°E)
Time: 05:40:01
(UTC+00:00)

OBJECT-B - Pass Details

Date: 18 September 2020
Orbit: 421 x 433 km, 97.0° (Epoch: 09 October)

Event Time Altitude Azimuth Distance (km) Brightness Sun altitude
Exits shadow 19:01:25 56° 116° (ESE) 510 0.7 -17.7°
Maximum altitude 19:01:49 63° 75° (ENE) 477 0.7 -17.8°
Drops below altitude 10° 19:05:03 10° 353° (N) 1,524 4.0 -18.3°
Sets 19:07:05 0° 351° (N) 2,396 5.1 -18.6°
